Location: Knowlton
(51.2333°N, 1.2667°E)
Time: 09:15:45
(UTC+00:00)

Cosmos 405 - Pass Details

Date: 18 April 2021
Orbit: 448 x 459 km, 81.3° (Epoch: 16 May)

Event Time Altitude Azimuth Distance (km) Brightness Sun altitude
Rises 19:44:51 0° 185° (S) 2,447 6.4 -7.8°
Reaches altitude 10° 19:46:54 10° 182° (S) 1,582 5.4 -8.0°
Maximum altitude 19:50:20 68° 100° (E) 494 2.9 -8.5°
Drops below altitude 10° 19:53:49 10° 17° (NNE) 1,603 5.9 -9.0°
Sets 19:55:55 0° 15° (NNE) 2,485 6.9 -9.3°
